Flag for U.S.A. Weather past 2 weeks in Lewiston, Idaho, U.S.A.

Now
36 °F

Clear.


Feels Like: 31 °F
Forecast: 21 / 45 °F
Wind: 6 mph from Northwest

Location: Lewiston-Nez Perce County Airport

Current Time: Mar 3, 2015 at 6:57:57 PM

Latest Report: Mar 3, 2015 at 5:56 PM


Visibility: 10 mi

Pressure: 30.21 "Hg

Humidity: 42%

Dew point: 15 °F

Location of LewistonLocation

Historic Weather in Lewiston — Graph

°F

Lewiston temperature yesterday

Maximum temperature yesterday: 44 °F (at 1:56 PM)
Minimum temperature yesterday: 30 °F (at 3:56 AM)
Average temperature yesterday: 37 °F

Past Weeks' High & Low Weather Summary

 TemperatureHumidityPressure
High54 °F (Feb 25, 2:56 PM)100% (Feb 20, 3:56 AM)30.55 "Hg (Feb 20, 3:56 AM)
Low21 °F (Feb 23, 6:56 AM)22% (Feb 22, 2:56 PM)29.71 "Hg (Feb 27, 2:56 PM)
Average39 °F65%30.20 "Hg
* Reported Feb 16 4:56 PM — Mar 3 4:56 PM, Lewiston, Weather by CustomWeather, © 2015

Note: Actual official high and low records may vary slightly from our data, if they occured in-between our weather recording intervals... More about our weather records

Advertising

Lewiston weather history for previous 24 hours

 ConditionsComfort  
Time TempWeatherWind HumidityBarometerVisibility
4:56 PM
Tue, Mar 3
40 °FSunny.9 mph36%30.19 "Hg10 mi
3:56 PM42 °FSunny.12 mph35%30.18 "Hg10 mi
2:56 PM42 °FSunny.12 mph38%30.20 "Hg10 mi
1:56 PM42 °FSunny.9 mph39%30.20 "Hg10 mi
12:56 PM41 °FSunny.5 mph41%30.22 "Hg10 mi
11:56 AM37 °FSunny.5 mph52%30.23 "Hg10 mi
10:56 AM35 °FSunny.5 mph56%30.24 "Hg10 mi
9:56 AM36 °FScattered clouds.5 mph59%30.25 "Hg10 mi
8:56 AM34 °FPartly sunny.3 mph61%30.23 "Hg10 mi
7:56 AM31 °FSunny.3 mph73%30.22 "Hg10 mi
6:56 AM29 °FPassing clouds.3 mph75%30.21 "Hg10 mi
5:56 AM29 °FPassing clouds.3 mph75%30.19 "Hg10 mi
4:56 AM32 °FPassing clouds.No wind66%30.17 "Hg10 mi
3:56 AM33 °FPartly cloudy.6 mph70%30.15 "Hg10 mi
2:56 AM34 °FOvercast.6 mph79%30.12 "Hg10 mi
1:56 AM34 °FMostly cloudy.5 mph85%30.09 "Hg10 mi
12:56 AM34 °FPassing clouds.6 mph88%30.07 "Hg10 mi
11:56 PM
Mon, Mar 2
35 °FOvercast.3 mph92%30.04 "Hg10 mi
10:56 PM35 °FOvercast.6 mph92%30.03 "Hg10 mi
9:56 PM34 °FPartly cloudy.5 mph97%30.01 "Hg10 mi
8:56 PM35 °FLight rain. Overcast.7 mph92%30.00 "Hg10 mi
7:56 PM39 °FOvercast.No wind76%29.98 "Hg10 mi
6:56 PM39 °FOvercast.8 mph70%29.97 "Hg10 mi
Weather by CustomWeather, © 2015

See weather overviewHow to use our weather pages